Find GPS II-6

NORAD ID: 20452 Int'l Des: 1990-008 Owner: AFSSD2 Country: US Constellation: GPS operational
MEOCIRCULAR

当前视图

正在加载3D地球...

About GPS II-6

GPS II-6 (NORAD 20452) is a GPS constellation satellite launched Jan 24, 1990 by AFSSD2 of US. It operates in MEO, CIRCULAR orbit with a mass of 776.00 kg.

关于 GPS II-6

正在加载描述...

即将过境

Passes for default location (London). Set your location on the main map for personalized predictions.

高度历史

Loading altitude history...

两行轨道根数

1 20452U 90008A 26171.17505031 .00000053 00000-0 00000-0 0 9997
2 20452 54.8639 133.5440 0015880 283.2959 252.9262 1.89597754256488
Epoch: Jun 20, 2026 • Age: 11 hours

当前状态

高度 21232.5 km
速度 3.80 km/s
星下点 30.19°N, 145.61°E
发射日期 Jan 24, 1990
运行时间 36.4 years
类型 navigation

技术详情

分类 Payload
质量 776.00 kg
干质量 776.00 kg
总质量 1667.00 kg
长度 2.40 m
直径 1.80 m
跨度 5.30 m
形状 Box + 2 Pan
制造商 RWISB
平台类型 GPS II
阶段状态 In Orbit
所有者/国家 AFSSD2/US

Most Searched